This is the latest recevied weather packets stored in our database for station/object DO7ZT-10. If no packets are shown the sender has not sent any weather packets the latest 1 day(s).
| Time | Temp. | Humidity | Pressure | Rain* | Wind** | Luminosity | Snow |
|---|---|---|---|---|---|---|---|
| 1777792700 | 20° C | 32% | 1015.8 hPa | - | - | - | - |
| 1777791800 | 19.44° C | 34% | 1015.8 hPa | - | - | - | - |
| 1777790900 | 18.89° C | 34% | 1015.8 hPa | - | - | - | - |
| 1777790000 | 18.33° C | 36% | 1015.8 hPa | - | - | - | - |
| 1777789100 | 17.78° C | 35% | 1015.9 hPa | - | - | - | - |
| 1777788200 | 17.78° C | 36% | 1015.9 hPa | - | - | - | - |
| 1777787300 | 17.22° C | 36% | 1015.8 hPa | - | - | - | - |
| 1777786400 | 16.67° C | 36% | 1015.7 hPa | - | - | - | - |
| 1777785500 | 16.67° C | 37% | 1015.9 hPa | - | - | - | - |
| 1777784600 | 16.11° C | 37% | 1015.9 hPa | - | - | - | - |
| 1777783700 | 16.11° C | 37% | 1015.8 hPa | - | - | - | - |
| 1777782800 | 15.56° C | 38% | 1015.8 hPa | - | - | - | - |
| 1777781900 | 15° C | 39% | 1015.8 hPa | - | - | - | - |
| 1777780999 | 15° C | 38% | 1015.8 hPa | - | - | - | - |
| 1777780099 | 15° C | 37% | 1015.8 hPa | - | - | - | - |
| 1777779199 | 15° C | 37% | 1015.8 hPa | - | - | - | - |
| 1777778299 | 15.56° C | 37% | 1015.7 hPa | - | - | - | - |
| 1777777399 | 15.56° C | 37% | 1015.8 hPa | - | - | - | - |
| 1777776499 | 15.56° C | 36% | 1015.9 hPa | - | - | - | - |
| 1777775599 | 16.11° C | 36% | 1015.9 hPa | - | - | - | - |
| 1777774699 | 16.11° C | 35% | 1015.9 hPa | - | - | - | - |
| 1777773799 | 16.11° C | 35% | 1016.1 hPa | - | - | - | - |
| 1777772899 | 16.11° C | 35% | 1016.1 hPa | - | - | - | - |
| 1777771999 | 16.11° C | 35% | 1016.1 hPa | - | - | - | - |
| 1777771099 | 16.67° C | 34% | 1016.2 hPa | - | - | - | - |
* Rain since midnight (hover to see other rain measurements)
** Current wind speed in m/s (hover to see current wind gust speed)